| time (UTC) | temp C | wind direction | speed KPH | gust KPH | rain 1hr cm | rain 24hr cm | rain mn cm | humidity % | barometer mb |
| 20260504030503 | 10 | 8 | 0.0 | 0.0 | 0.00 | 0.00 | 0.00 | 70 | 1014.4 |
| 20260504025958 | 10 | 8 | 0.0 | 0.0 | 0.00 | 0.00 | 0.00 | 70 | 1014.5 |
| 20260504025456 | 10 | 8 | 0.0 | 0.0 | 0.00 | 0.00 | 0.00 | 72 | 1014.6 |
| 20260504024952 | 10 | 8 | 0.0 | 0.0 | 0.00 | 0.00 | 0.00 | 71 | 1014.5 |
| 20260504024449 | 10 | 8 | 0.0 | 0.0 | 0.00 | 0.00 | 0.00 | 68 | 1014.7 |
| 20260504023946 | 10 | 99 | 0.0 | 0.0 | 0.00 | 0.00 | 0.00 | 71 | 1014.6 |
| 20260504023443 | 10 | 99 | 0.0 | 0.0 | 0.00 | 0.00 | 0.00 | 67 | 1014.7 |
| 20260504022938 | 10 | 99 | 0.0 | 0.0 | 0.00 | 0.00 | 0.00 | 68 | 1014.4 |
| 20260504022435 | 10 | 95 | 3.2 | 3.2 | 0.00 | 0.00 | 0.00 | 65 | 1014.7 |
| 20260504021932 | 11 | 71 | 1.6 | 3.2 | 0.00 | 0.00 | 0.00 | 65 | 1014.7 |
| 20260504021429 | 11 | 54 | 0.0 | 4.8 | 0.00 | 0.00 | 0.00 | 60 | 1014.7 |
| 20260504020926 | 11 | 23 | 0.0 | 3.2 | 0.00 | 0.00 | 0.00 | 65 | 1014.8 |
| 20260504020423 | 11 | 66 | 0.0 | 3.2 | 0.00 | 0.00 | 0.00 | 61 | 1014.7 |
| 20260504015920 | 11 | 90 | 3.2 | 4.8 | 0.00 | 0.00 | 0.00 | 59 | 1014.9 |
| 20260504015415 | 11 | 66 | 1.6 | 3.2 | 0.00 | 0.00 | 0.00 | 60 | 1014.8 |
| 20260504014912 | 11 | 59 | 3.2 | 4.8 | 0.00 | 0.00 | 0.00 | 59 | 1014.9 |
| 20260504014408 | 11 | 73 | 3.2 | 6.4 | 0.00 | 0.00 | 0.00 | 58 | 1014.7 |
| 20260504013905 | 11 | 75 | 1.6 | 3.2 | 0.00 | 0.00 | 0.00 | 57 | 1014.6 |
| 20260504013403 | 11 | 45 | 3.2 | 4.8 | 0.00 | 0.00 | 0.00 | 57 | 1014.6 |
| 20260504012859 | 11 | 52 | 0.0 | 4.8 | 0.00 | 0.00 | 0.00 | 56 | 1014.6 |
| 20260504012357 | 11 | 39 | 3.2 | 11.3 | 0.00 | 0.00 | 0.00 | 56 | 1014.5 |
| 20260504011854 | 11 | 31 | 4.8 | 9.7 | 0.00 | 0.00 | 0.00 | 54 | 1014.5 |
| 20260504011351 | 11 | 114 | 0.0 | 6.4 | 0.00 | 0.00 | 0.00 | 56 | 1014.5 |
| 20260504010847 | 11 | 47 | 4.8 | 8.0 | 0.00 | 0.00 | 0.00 | 53 | 1014.3 |
| 20260504010343 | 10 | 90 | 1.6 | 3.2 | 0.00 | 0.00 | 0.00 | 60 | 1014.2 |
| 20260504005839 | 10 | 90 | 1.6 | 1.6 | 0.00 | 0.00 | 0.00 | 66 | 1014.4 |
| 20260504005336 | 10 | 8 | 0.0 | 0.0 | 0.00 | 0.00 | 0.00 | 65 | 1014.3 |
| 20260504004834 | 11 | 8 | 0.0 | 0.0 | 0.00 | 0.00 | 0.00 | 63 | 1014.1 |
| 20260504004331 | 11 | 8 | 0.0 | 0.0 | 0.00 | 0.00 | 0.00 | 66 | 1014.1 |
| 20260504003827 | 11 | 8 | 0.0 | 0.0 | 0.00 | 0.00 | 0.00 | 67 | 1014.2 |
| 20260504003325 | 11 | 8 | 0.0 | 0.0 | 0.00 | 0.00 | 0.00 | 62 | 1014.1 |
| 20260504002821 | 11 | 8 | 0.0 | 0.0 | 0.00 | 0.00 | 0.00 | 63 | 1014.1 |
| 20260504002318 | 11 | 8 | 0.0 | 0.0 | 0.00 | 0.00 | 0.00 | 61 | 1013.9 |
| 20260504001816 | 11 | 90 | 0.0 | 0.0 | 0.00 | 0.00 | 0.00 | 62 | 1014.2 |
| 20260504001313 | 11 | 90 | 0.0 | 0.0 | 0.00 | 0.00 | 0.00 | 59 | 1014.1 |
| 20260504000810 | 12 | 90 | 0.0 | 0.0 | 0.00 | 0.00 | 0.00 | 61 | 1013.9 |
| 20260504000307 | 11 | 90 | 0.0 | 1.6 | 0.00 | 0.00 | 0.00 | 56 | 1014.1 |
| 20260503235804 | 11 | 54 | 0.0 | 0.0 | 0.00 | 0.00 | 0.00 | 62 | 1014.1 |
| 20260503235301 | 12 | 54 | 0.0 | 0.0 | 0.00 | 0.00 | 0.00 | 64 | 1014.2 |
| 20260503234759 | 12 | 237 | 0.0 | 0.0 | 0.00 | 0.00 | 0.00 | 58 | 1014.3 |
| 20260503234257 | 12 | 90 | 0.0 | 0.0 | 0.00 | 0.00 | 0.00 | 59 | 1014.4 |
| 20260503233754 | 12 | 90 | 0.0 | 0.0 | 0.00 | 0.00 | 0.00 | 60 | 1014.4 |
| 20260503233249 | 12 | 90 | 0.0 | 0.0 | 0.00 | 0.00 | 0.00 | 59 | 1014.6 |
| 20260503232747 | 12 | 270 | 0.0 | 0.0 | 0.00 | 0.00 | 0.00 | 55 | 1014.4 |
| 20260503232244 | 13 | 99 | 0.0 | 0.0 | 0.00 | 0.00 | 0.00 | 52 | 1014.6 |
| 20260503231742 | 13 | 57 | 0.0 | 3.2 | 0.00 | 0.00 | 0.00 | 47 | 1014.4 |
| 20260503231239 | 13 | 81 | 3.2 | 3.2 | 0.00 | 0.00 | 0.00 | 46 | 1014.6 |
| 20260503230734 | 13 | 82 | 0.0 | 4.8 | 0.00 | 0.00 | 0.00 | 43 | 1014.7 |
| 20260503230232 | 13 | 78 | 3.2 | 4.8 | 0.00 | 0.00 | 0.00 | 46 | 1014.6 |
| 20260503225730 | 13 | 107 | 4.8 | 4.8 | 0.00 | 0.00 | 0.00 | 49 | 1014.7 |
| 20260503225229 | 13 | 63 | 0.0 | 3.2 | 0.00 | 0.00 | 0.00 | 47 | 1014.9 |
| 20260503224727 | 13 | 14 | 1.6 | 3.2 | 0.00 | 0.00 | 0.00 | 48 | 1014.6 |
| 20260503224225 | 13 | 36 | 3.2 | 3.2 | 0.00 | 0.00 | 0.00 | 49 | 1014.9 |
| 20260503223722 | 14 | 78 | 3.2 | 4.8 | 0.00 | 0.00 | 0.00 | 45 | 1014.8 |
| 20260503223219 | 14 | 117 | 0.0 | 8.0 | 0.00 | 0.00 | 0.00 | 44 | 1014.8 |
| 20260503222716 | 14 | 140 | 3.2 | 8.0 | 0.00 | 0.00 | 0.00 | 48 | 1015.1 |
| 20260503222213 | 14 | 49 | 4.8 | 8.0 | 0.00 | 0.00 | 0.00 | 46 | 1014.9 |
| 20260503221712 | 14 | 45 | 4.8 | 4.8 | 0.00 | 0.00 | 0.00 | 42 | 1014.9 |
| 20260503221209 | 14 | 111 | 1.6 | 6.4 | 0.00 | 0.00 | 0.00 | 40 | 1014.8 |
| 20260503220705 | 14 | 84 | 1.6 | 8.0 | 0.00 | 0.00 | 0.00 | 45 | 1014.8 |
| 20260503220202 | 14 | 106 | 1.6 | 4.8 | 0.00 | 0.00 | 0.00 | 48 | 1014.9 |
| 20260503215659 | 14 | 270 | 3.2 | 3.2 | 0.00 | 0.00 | 0.00 | 45 | 1014.8 |
| 20260503215156 | 14 | 23 | 1.6 | 4.8 | 0.00 | 0.00 | 0.00 | 42 | 1014.8 |
| 20260503214654 | 15 | 114 | 0.0 | 3.2 | 0.00 | 0.00 | 0.00 | 42 | 1015.1 |
| 20260503214149 | 14 | 84 | 4.8 | 6.4 | 0.00 | 0.00 | 0.00 | 44 | 1014.9 |
| 20260503213644 | 15 | 15 | 3.2 | 6.4 | 0.00 | 0.00 | 0.00 | 41 | 1014.8 |
| 20260503213140 | 15 | 62 | 4.8 | 6.4 | 0.00 | 0.00 | 0.00 | 44 | 1015.3 |
| 20260503212637 | 15 | 129 | 3.2 | 4.8 | 0.00 | 0.00 | 0.00 | 45 | 1015.0 |
| 20260503212135 | 16 | 80 | 4.8 | 4.8 | 0.00 | 0.00 | 0.00 | 43 | 1014.9 |
| 20260503211632 | 15 | 21 | 0.0 | 6.4 | 0.00 | 0.00 | 0.00 | 42 | 1015.0 |
| 20260503211127 | 15 | 84 | 1.6 | 4.8 | 0.00 | 0.00 | 0.00 | 43 | 1014.8 |
| 20260503210624 | 15 | 66 | 4.8 | 4.8 | 0.00 | 0.00 | 0.00 | 45 | 1015.1 |
| 20260503210121 | 15 | 49 | 3.2 | 8.0 | 0.00 | 0.00 | 0.00 | 42 | 1015.1 |
| 20260503205617 | 15 | 56 | 3.2 | 4.8 | 0.00 | 0.00 | 0.00 | 42 | 1014.8 |
| 20260503205113 | 16 | 49 | 0.0 | 4.8 | 0.00 | 0.00 | 0.00 | 41 | 1014.9 |
| 20260503204610 | 16 | 90 | 1.6 | 11.3 | 0.00 | 0.00 | 0.00 | 39 | 1015.1 |
| 20260503204108 | 16 | 63 | 1.6 | 8.0 | 0.00 | 0.00 | 0.00 | 39 | 1015.1 |
| 20260503203604 | 16 | 254 | 1.6 | 4.8 | 0.00 | 0.00 | 0.00 | 42 | 1015.3 |
| 20260503203101 | 15 | 79 | 8.0 | 11.3 | 0.00 | 0.00 | 0.00 | 42 | 1015.2 |
| 20260503202559 | 16 | 116 | 4.8 | 6.4 | 0.00 | 0.00 | 0.00 | 41 | 1015.0 |
| 20260503202057 | 15 | 82 | 3.2 | 8.0 | 0.00 | 0.00 | 0.00 | 45 | 1015.2 |
| 20260503201555 | 15 | 281 | 0.0 | 6.4 | 0.00 | 0.00 | 0.00 | 43 | 1015.3 |
| 20260503201052 | 15 | 56 | 3.2 | 6.4 | 0.00 | 0.00 | 0.00 | 40 | 1015.3 |
| 20260503200548 | 15 | 120 | 3.2 | 9.7 | 0.00 | 0.00 | 0.00 | 47 | 1015.3 |
| 20260503200044 | 15 | 41 | 0.0 | 8.0 | 0.00 | 0.00 | 0.00 | 40 | 1015.3 |
| 20260503195542 | 15 | 34 | 3.2 | 4.8 | 0.00 | 0.00 | 0.00 | 43 | 1015.6 |
| 20260503195038 | 15 | 90 | 1.6 | 6.4 | 0.00 | 0.00 | 0.00 | 44 | 1015.8 |
| 20260503194536 | 15 | 73 | 4.8 | 8.0 | 0.00 | 0.00 | 0.00 | 45 | 1015.9 |
| 20260503194035 | 15 | 57 | 4.8 | 8.0 | 0.00 | 0.00 | 0.00 | 42 | 1015.9 |
| 20260503193532 | 15 | 355 | 4.8 | 4.8 | 0.00 | 0.00 | 0.00 | 44 | 1016.1 |
| 20260503193028 | 15 | 30 | 3.2 | 11.3 | 0.00 | 0.00 | 0.00 | 41 | 1016.2 |
| 20260503192524 | 15 | 49 | 4.8 | 9.7 | 0.00 | 0.00 | 0.00 | 41 | 1016.1 |
| 20260503192020 | 15 | 82 | 8.0 | 9.7 | 0.00 | 0.00 | 0.00 | 43 | 1016.3 |
| 20260503191517 | 14 | 127 | 3.2 | 6.4 | 0.00 | 0.00 | 0.00 | 47 | 1016.5 |
| 20260503191014 | 14 | 81 | 0.0 | 9.7 | 0.00 | 0.00 | 0.00 | 45 | 1016.3 |
| 20260503190511 | 15 | 90 | 3.2 | 6.4 | 0.00 | 0.00 | 0.00 | 42 | 1016.5 |
| 20260503190008 | 14 | 32 | 0.0 | 6.4 | 0.00 | 0.00 | 0.00 | 44 | 1016.8 |
| 20260503185504 | 14 | 81 | 3.2 | 3.2 | 0.00 | 0.00 | 0.00 | 45 | 1016.7 |
| 20260503184958 | 14 | 117 | 4.8 | 8.0 | 0.00 | 0.00 | 0.00 | 46 | 1016.8 |
| 20260503184455 | 14 | 63 | 6.4 | 6.4 | 0.00 | 0.00 | 0.00 | 42 | 1016.7 |
| 20260503183951 | 15 | 90 | 0.0 | 11.3 | 0.00 | 0.00 | 0.00 | 46 | 1016.8 |
| 20260503183448 | 15 | 29 | 1.6 | 6.4 | 0.00 | 0.00 | 0.00 | 41 | 1016.7 |
| 20260503182944 | 15 | 15 | 1.6 | 8.0 | 0.00 | 0.00 | 0.00 | 42 | 1017.0 |
| 20260503182443 | 15 | 75 | 0.0 | 8.0 | 0.00 | 0.00 | 0.00 | 45 | 1016.9 |
| 20260503181941 | 15 | 144 | 3.2 | 8.0 | 0.00 | 0.00 | 0.00 | 44 | 1017.1 |
| 20260503181438 | 15 | 90 | 3.2 | 4.8 | 0.00 | 0.00 | 0.00 | 45 | 1017.0 |
| 20260503180933 | 14 | 117 | 1.6 | 9.7 | 0.00 | 0.00 | 0.00 | 44 | 1017.1 |
| 20260503180432 | 14 | 127 | 3.2 | 9.7 | 0.00 | 0.00 | 0.00 | 44 | 1017.2 |
| 20260503175928 | 13 | 109 | 1.6 | 8.0 | 0.00 | 0.00 | 0.00 | 43 | 1017.1 |
| 20260503175427 | 14 | 113 | 8.0 | 9.7 | 0.00 | 0.00 | 0.00 | 43 | 1017.1 |
| 20260503174922 | 13 | 90 | 0.0 | 6.4 | 0.00 | 0.00 | 0.00 | 43 | 1017.3 |
| 20260503174421 | 14 | 73 | 6.4 | 12.9 | 0.00 | 0.00 | 0.00 | 43 | 1017.4 |
| 20260503173920 | 14 | 98 | 6.4 | 9.7 | 0.00 | 0.00 | 0.00 | 41 | 1017.4 |
| 20260503173417 | 15 | 0 | 0.0 | 6.4 | 0.00 | 0.00 | 0.00 | 40 | 1017.2 |
| 20260503172914 | 15 | 86 | 4.8 | 8.0 | 0.00 | 0.00 | 0.00 | 43 | 1017.3 |
| 20260503172411 | 14 | 99 | 3.2 | 8.0 | 0.00 | 0.00 | 0.00 | 42 | 1017.5 |
| 20260503171907 | 15 | 83 | 9.7 | 12.9 | 0.00 | 0.00 | 0.00 | 39 | 1017.5 |
| 20260503171404 | 14 | 36 | 3.2 | 12.9 | 0.00 | 0.00 | 0.00 | 42 | 1017.6 |
| 20260503170902 | 15 | 138 | 9.7 | 9.7 | 0.00 | 0.00 | 0.00 | 45 | 1017.7 |
| 20260503170358 | 15 | 110 | 9.7 | 11.3 | 0.00 | 0.00 | 0.00 | 43 | 1017.7 |
| 20260503150750 | 12 | 349 | 1.6 | 6.4 | 0.00 | 0.00 | 0.00 | 51 | 1018.7 |
| 20260503150246 | 11 | 87 | 4.8 | 8.0 | 0.00 | 0.00 | 0.00 | 49 | 1018.8 |
| 20260503140211 | 8 | 114 | 1.6 | 6.4 | 0.00 | 0.00 | 0.00 | 59 | 1019.2 |
| 20260503131140 | 6 | 48 | 3.2 | 4.8 | 0.00 | 0.00 | 0.00 | 77 | 1019.2 |
| 20260503130638 | 5 | 114 | 4.8 | 4.8 | 0.00 | 0.00 | 0.00 | 78 | 1019.2 |
| 20260503130135 | 5 | 24 | 3.2 | 4.8 | 0.00 | 0.00 | 0.00 | 81 | 1019.4 |
| 20260503110528 | 0 | 75 | 0.0 | 0.0 | 0.00 | 0.00 | 0.00 | 98 | 1018.7 |
| 20260503090415 | 0 | 82 | 0.0 | 0.0 | 0.00 | 0.00 | 0.00 | 97 | 1017.9 |
| 20260503081341 | 1 | 74 | 0.0 | 0.0 | 0.00 | 0.00 | 0.00 | 97 | 1018.0 |
| 20260503080838 | 1 | 74 | 0.0 | 0.0 | 0.00 | 0.00 | 0.00 | 97 | 1017.7 |
| 20260503080335 | 1 | 74 | 0.0 | 0.0 | 0.00 | 0.00 | 0.00 | 96 | 1017.7 |
| 20260503072811 | 1 | 90 | 0.0 | 1.6 | 0.00 | 0.00 | 0.00 | 96 | 1017.7 |
| 20260503072308 | 1 | 15 | 0.0 | 0.0 | 0.00 | 0.00 | 0.00 | 96 | 1017.8 |
| 20260503071804 | 1 | 15 | 0.0 | 0.0 | 0.00 | 0.00 | 0.00 | 96 | 1017.6 |
| 20260503071302 | 1 | 15 | 0.0 | 0.0 | 0.00 | 0.00 | 0.00 | 96 | 1017.5 |
| 20260503070758 | 1 | 15 | 0.0 | 0.0 | 0.00 | 0.00 | 0.00 | 95 | 1017.8 |
| 20260503070256 | 1 | 15 | 0.0 | 0.0 | 0.00 | 0.00 | 0.00 | 95 | 1017.9 |
| 20260503060215 | 2 | 77 | 0.0 | 3.2 | 0.00 | 0.00 | 0.00 | 93 | 1017.9 |
| 20260503054702 | 2 | 74 | 0.0 | 0.0 | 0.00 | 0.00 | 0.00 | 93 | 1017.8 |
| 20260503054159 | 2 | 90 | 0.0 | 0.0 | 0.00 | 0.00 | 0.00 | 92 | 1017.9 |
| 20260503053657 | 2 | 90 | 1.6 | 3.2 | 0.00 | 0.00 | 0.00 | 92 | 1017.9 |
| 20260503053155 | 2 | 82 | 0.0 | 3.2 | 0.00 | 0.00 | 0.00 | 92 | 1017.6 |
| 20260503052651 | 2 | 68 | 0.0 | 3.2 | 0.00 | 0.00 | 0.00 | 92 | 1017.9 |
| 20260503052148 | 2 | 114 | 0.0 | 1.6 | 0.00 | 0.00 | 0.00 | 92 | 1018.2 |
| 20260503051643 | 2 | 112 | 0.0 | 0.0 | 0.00 | 0.00 | 0.00 | 92 | 1017.9 |
| 20260503051141 | 2 | 112 | 0.0 | 0.0 | 0.00 | 0.00 | 0.00 | 92 | 1018.2 |
| 20260503050638 | 2 | 98 | 0.0 | 0.0 | 0.00 | 0.00 | 0.00 | 92 | 1018.1 |
| 20260503050134 | 2 | 74 | 0.0 | 0.0 | 0.00 | 0.00 | 0.00 | 92 | 1018.0 |
| 20260503045632 | 2 | 105 | 0.0 | 0.0 | 0.00 | 0.00 | 0.00 | 93 | 1018.1 |
| 20260503045129 | 2 | 97 | 0.0 | 0.0 | 0.00 | 0.00 | 0.00 | 93 | 1018.1 |
| 20260503044625 | 2 | 83 | 0.0 | 1.6 | 0.00 | 0.00 | 0.00 | 93 | 1018.1 |
| 20260503044123 | 2 | 77 | 1.6 | 1.6 | 0.00 | 0.00 | 0.00 | 93 | 1018.2 |
| 20260503043620 | 2 | 106 | 3.2 | 3.2 | 0.00 | 0.00 | 0.00 | 93 | 1018.0 |
| 20260503043116 | 2 | 90 | 0.0 | 3.2 | 0.00 | 0.00 | 0.00 | 92 | 1017.8 |
| 20260503042613 | 2 | 106 | 0.0 | 3.2 | 0.00 | 0.00 | 0.00 | 92 | 1018.0 |
| 20260503042109 | 2 | 18 | 0.0 | 1.6 | 0.00 | 0.00 | 0.00 | 92 | 1018.1 |
| 20260503041606 | 2 | 97 | 0.0 | 1.6 | 0.00 | 0.00 | 0.00 | 91 | 1018.1 |
| 20260503041104 | 2 | 82 | 0.0 | 0.0 | 0.00 | 0.00 | 0.00 | 91 | 1018.0 |
| 20260503040601 | 2 | 82 | 0.0 | 0.0 | 0.00 | 0.00 | 0.00 | 91 | 1018.1 |
| 20260503040058 | 2 | 82 | 0.0 | 0.0 | 0.00 | 0.00 | 0.00 | 91 | 1018.0 |
| 20260503035554 | 2 | 82 | 0.0 | 0.0 | 0.00 | 0.00 | 0.00 | 91 | 1018.2 |
| 20260503035052 | 2 | 82 | 0.0 | 0.0 | 0.00 | 0.00 | 0.00 | 91 | 1018.1 |
| 20260503034549 | 2 | 98 | 0.0 | 1.6 | 0.00 | 0.00 | 0.00 | 90 | 1018.3 |
| 20260503034046 | 2 | 106 | 0.0 | 0.0 | 0.00 | 0.00 | 0.00 | 90 | 1018.1 |
| 20260503033543 | 2 | 106 | 0.0 | 0.0 | 0.00 | 0.00 | 0.00 | 90 | 1018.1 |
| 20260503033041 | 2 | 106 | 0.0 | 0.0 | 0.00 | 0.00 | 0.00 | 90 | 1018.2 |
| 20260503032539 | 2 | 106 | 0.0 | 0.0 | 0.00 | 0.00 | 0.00 | 91 | 1018.2 |
| 20260503032037 | 2 | 90 | 0.0 | 0.0 | 0.00 | 0.00 | 0.00 | 90 | 1018.1 |
| 20260503031535 | 2 | 90 | 0.0 | 0.0 | 0.00 | 0.00 | 0.00 | 91 | 1018.5 |
| 20260503031032 | 2 | 90 | 0.0 | 0.0 | 0.00 | 0.00 | 0.00 | 90 | 1018.3 |